Flag for Poland Weather past 2 weeks in Włocławek, Poland

Now
63 °F

Overcast.


Feels Like: 63 °F
Forecast: 54 / 63 °F
Wind: 1 mph from Northwest

Location: Plock

Current Time: Aug 23, 2014 at 10:02:25 PM

Latest Report: Aug 23, 2014 at 9:00 PM


Visibility: 19 mi

Pressure: 29.89 "Hg

Humidity: 61%

Dew point: 49 °F

Location of WłocławekLocation

Historic Weather in Włocławek — Graph

°F

Włocławek temperature yesterday

Maximum temperature yesterday: 70 °F (at 5:00 PM)
Minimum temperature yesterday: 44 °F (at 6:00 AM)
Average temperature yesterday: 58 °F

Past Weeks' High & Low Weather Summary

 TemperatureHumidityPressure
High83 °F (Aug 10, 5:00 PM)99% (Aug 9, 6:00 AM)30.04 "Hg (Aug 9, 6:00 AM)
Low44 °F (Aug 22, 6:00 AM)40% (Aug 22, 5:00 PM)29.56 "Hg (Aug 14, 4:00 AM)
Average63 °F74%29.87 "Hg
* Reported Aug 8 8:00 PM — Aug 23 8:00 PM, Włocławek, Weather by CustomWeather, © 2014

Note: Actual official high and low records may vary slightly from our data, if they occured in-between our weather recording intervals... More about our weather records

Advertising

Włocławek weather history for previous 24 hours

 ConditionsComfort  
Time TempWeatherWind HumidityBarometerVisibility
8:00 PM
Aug 23
62 °FOvercast.1 mph69%29.89 "Hg12 mi
7:00 PM66 °FOvercast.2 mph57%29.88 "Hg28 mi
6:00 PM68 °FPartly sunny.2 mph50%29.88 "Hg28 mi
5:00 PM69 °FOvercast.3 mph45%29.89 "Hg25 mi
4:00 PM70 °FPartly sunny.3 mph43%29.89 "Hg25 mi
3:00 PM70 °FPartly sunny.5 mph42%29.89 "Hg22 mi
2:00 PM69 °FOvercast.6 mph41%29.90 "Hg28 mi
1:00 PM70 °FPartly sunny.5 mph43%29.90 "Hg25 mi
12:00 PM70 °FScattered clouds.6 mph41%29.90 "Hg25 mi
11:00 AM68 °FScattered clouds.5 mph53%29.90 "Hg19 mi
10:00 AM65 °FScattered clouds.3 mph70%29.90 "Hg19 mi
9:00 AM61 °FOvercast.5 mph79%29.91 "Hg16 mi
8:00 AM58 °FOvercast.2 mph86%29.90 "Hg12 mi
7:00 AM56 °FOvercast.2 mph90%29.90 "Hg7 mi
6:00 AM55 °FOvercast.2 mph89%29.90 "Hg8 mi
5:00 AM56 °FSprinkles. Overcast.2 mph86%29.91 "Hg9 mi
4:00 AM56 °FOvercast.2 mph84%29.92 "Hg11 mi
3:00 AM55 °FPassing clouds.2 mph85%29.92 "Hg9 mi
2:00 AM55 °FPassing clouds.2 mph84%29.93 "Hg11 mi
1:00 AM57 °FPassing clouds.2 mph76%29.93 "Hg15 mi
12:00 AM58 °FPassing clouds.2 mph73%29.94 "Hg19 mi
11:00 PM
Aug 22
59 °FPassing clouds.3 mph72%29.95 "Hg16 mi
10:00 PM61 °FPassing clouds.2 mph67%29.95 "Hg12 mi
Weather by CustomWeather, © 2014

See weather overviewHow to use our weather pages